Location: Unspecified
(0.0000°N, 0.0000°E)
Time: 02:47:42
(UTC+00:00)

STARLINK-2038 - Pass Details

Date: 24 February 2021
Orbit: 316 x 318 km, 53.1° (Epoch: 23 February)

Event Time Altitude Azimuth Distance (km) Brightness Sun altitude
Exits shadow 05:19:37 - 349° (N) 1,641 5.8 -13.2°
Reaches altitude 10° 05:20:45 10° 359° (N) 1,219 5.3 -12.9°
Maximum altitude 05:23:01 24° 56° (NE) 723 4.8 -12.4°
Drops below altitude 10° 05:25:18 10° 113° (ESE) 1,228 6.8 -11.8°
Sets 05:27:29 0° 128° (SE) 2,064 7.8 -11.3°
